Location: *
(46.3500°N, 10.9000°E)
Time: 23:32:02
(UTC+00:00)

Terra - Pass Details

Date: 09 April 2020
Orbit: 701 x 703 km, 98.2° (Epoch: 27 May)

Event Time Altitude Azimuth Distance (km) Brightness Sun altitude
Exits shadow 22:08:24 24° 295° (WNW) 1,448 3.8 -33.5°
Drops below altitude 10° 22:11:05 10° 325° (NW) 2,181 5.1 -33.6°
Sets 22:13:39 0° 337° (NNW) 3,105 6.2 -33.8°
